Time,TemperatureF,DewpointF,PressureIn,WindDirection,WindDirectionDegrees,WindSpeedMPH,WindSpeedGustMPH,Humidity,HourlyPrecipIn,Conditions,Clouds,dailyrainin,SolarRadiationWatts/m^2,SoftwareType,DateUTC
2014-08-21 00:00:00,62.8,58.5,-100.00,SSW,197,6.7,11.2,85,0.14,,,-99.99,1.0,HOBO +U30 +Weather +,2014-08-21 06:00:00,
2014-08-21 00:05:00,62.9,58.6,-100.00,SW,218,6.3,10.7,85,0.00,,,-99.99,1.0,HOBO +U30 +Weather +,2014-08-21 06:05:00,
2014-08-21 00:10:00,63.0,58.5,-100.00,SW,225,5.1,8.5,85,0.00,,,-99.99,1.0,HOBO +U30 +Weather +,2014-08-21 06:10:00,
2014-08-21 00:15:00,62.8,58.3,-100.00,SSW,209,6.7,10.1,85,0.00,,,-99.99,1.0,HOBO +U30 +Weather +,2014-08-21 06:15:00,
2014-08-21 00:20:00,62.9,58.3,-100.00,SSW,212,4.5,9.6,84,0.00,,,-99.99,1.0,HOBO +U30 +Weather +,2014-08-21 06:20:00,
2014-08-21 00:25:00,62.8,58.1,-100.00,SSW,199,4.0,7.8,84,0.00,,,-99.99,1.0,HOBO +U30 +Weather +,2014-08-21 06:25:00,
2014-08-21 00:30:00,62.7,58.2,-100.00,South,180,3.4,6.3,85,0.00,,,-99.99,1.0,HOBO +U30 +Weather +,2014-08-21 06:30:00,
2014-08-21 00:40:00,62.6,58.1,-100.00,SSE,167,2.2,5.6,85,0.00,,,-99.99,1.0,HOBO +U30 +Weather +,2014-08-21 06:40:00,
2014-08-21 00:45:00,62.5,58.0,-100.00,South,180,4.5,7.4,85,0.00,,,-99.99,1.0,HOBO +U30 +Weather +,2014-08-21 06:45:00,
2014-08-21 00:50:00,62.5,57.9,-100.00,South,188,4.0,6.7,84,0.00,,,-99.99,1.0,HOBO +U30 +Weather +,2014-08-21 06:50:00,
2014-08-21 00:55:00,62.5,58.0,-100.00,South,187,4.5,6.7,85,0.00,,,-99.99,1.0,HOBO +U30 +Weather +,2014-08-21 06:55:00,
2014-08-21 01:00:00,62.9,57.6,-100.00,SW,226,5.6,10.1,82,0.00,,,-99.99,1.0,HOBO +U30 +Weather +,2014-08-21 07:00:00,
2014-08-21 01:05:00,63.0,57.5,-100.00,SSW,208,5.6,9.6,82,0.00,,,-99.99,1.0,HOBO +U30 +Weather +,2014-08-21 07:05:00,
2014-08-21 01:10:00,63.1,57.5,-100.00,SSW,209,5.6,8.5,81,0.00,,,-99.99,1.0,HOBO +U30 +Weather +,2014-08-21 07:10:00,
2014-08-21 01:15:00,63.2,57.5,-100.00,SW,223,4.0,7.8,81,0.00,,,-99.99,1.0,HOBO +U30 +Weather +,2014-08-21 07:15:00,
2014-08-21 01:20:00,63.0,57.5,-100.00,SW,227,5.1,7.8,82,0.00,,,-99.99,1.0,HOBO +U30 +Weather +,2014-08-21 07:20:00,
2014-08-21 01:25:00,63.0,57.5,-100.00,SW,227,3.4,6.3,82,0.00,,,-99.99,1.0,HOBO +U30 +Weather +,2014-08-21 07:25:00,
2014-08-21 01:30:00,63.1,57.4,-100.00,SSW,213,2.9,6.3,81,0.00,,,-99.99,1.0,HOBO +U30 +Weather +,2014-08-21 07:30:00,
2014-08-21 01:35:00,63.0,57.4,-100.00,SSW,209,5.1,8.5,81,0.00,,,-99.99,1.0,HOBO +U30 +Weather +,2014-08-21 07:35:00,
2014-08-21 01:40:00,63.2,58.0,-100.00,SSW,208,4.0,7.4,83,0.00,,,-99.99,1.0,HOBO +U30 +Weather +,2014-08-21 07:40:00,
2014-08-21 01:45:00,63.0,57.9,-100.00,South,191,4.0,7.8,83,0.00,,,-99.99,1.0,HOBO +U30 +Weather +,2014-08-21 07:45:00,
2014-08-21 01:50:00,62.7,57.9,-100.00,SSW,194,6.3,8.5,84,0.00,,,-99.99,1.0,HOBO +U30 +Weather +,2014-08-21 07:50:00,
2014-08-21 01:55:00,62.7,58.0,-100.00,SSW,202,5.1,7.4,84,0.00,,,-99.99,1.0,HOBO +U30 +Weather +,2014-08-21 07:55:00,
2014-08-21 02:00:00,63.0,58.0,-100.00,SW,229,3.4,7.4,83,0.00,,,-99.99,1.0,HOBO +U30 +Weather +,2014-08-21 08:00:00,
2014-08-21 02:05:00,63.1,57.9,-100.00,SW,232,2.2,5.1,83,0.00,,,-99.99,1.0,HOBO +U30 +Weather +,2014-08-21 08:05:00,
2014-08-21 02:10:00,63.2,57.9,-100.00,SW,215,4.0,6.7,82,0.00,,,-99.99,1.0,HOBO +U30 +Weather +,2014-08-21 08:10:00,
2014-08-21 02:15:00,63.1,57.9,-100.00,SW,223,5.1,10.7,82,0.00,,,-99.99,1.0,HOBO +U30 +Weather +,2014-08-21 08:15:00,
2014-08-21 02:20:00,63.0,57.8,-100.00,WSW,246,6.7,10.7,82,0.00,,,-99.99,1.0,HOBO +U30 +Weather +,2014-08-21 08:20:00,
2014-08-21 02:25:00,62.9,57.8,-100.00,WSW,253,6.3,10.1,83,0.00,,,-99.99,1.0,HOBO +U30 +Weather +,2014-08-21 08:25:00,
2014-08-21 02:37:00,62.8,57.7,-100.00,WSW,251,5.6,8.9,83,0.00,,,-99.99,1.0,HOBO +U30 +Weather +,2014-08-21 08:37:00,
2014-08-21 02:40:00,62.9,57.5,-100.00,WSW,250,5.1,8.5,82,0.00,,,-99.99,1.0,HOBO +U30 +Weather +,2014-08-21 08:40:00,
2014-08-21 02:45:00,62.7,57.8,-100.00,WNW,284,2.9,6.7,83,0.00,,,-99.99,1.0,HOBO +U30 +Weather +,2014-08-21 08:45:00,
2014-08-21 02:50:00,62.3,57.9,-100.00,WNW,296,3.4,6.7,85,0.00,,,-99.99,1.0,HOBO +U30 +Weather +,2014-08-21 08:50:00,
2014-08-21 02:55:00,62.1,57.9,-100.00,West,268,4.0,8.9,86,0.00,,,-99.99,1.0,HOBO +U30 +Weather +,2014-08-21 08:55:00,
2014-08-21 03:00:00,62.1,57.8,-100.00,WSW,248,1.1,4.5,85,0.00,,,-99.99,1.0,HOBO +U30 +Weather +,2014-08-21 09:00:00,
2014-08-21 03:05:00,61.9,57.8,-100.00,WNW,282,0.0,2.2,86,0.00,,,-99.99,1.0,HOBO +U30 +Weather +,2014-08-21 09:05:00,
2014-08-21 03:10:00,62.8,57.8,-100.00,WNW,282,0.0,2.2,83,0.00,,,-99.99,1.0,HOBO +U30 +Weather +,2014-08-21 09:10:00,
2014-08-21 03:15:00,62.3,57.0,-100.00,NNE,15,2.9,6.3,82,0.00,,,-99.99,1.0,HOBO +U30 +Weather +,2014-08-21 09:15:00,
2014-08-21 03:20:00,62.4,56.5,-100.00,North,355,3.4,5.6,81,0.00,,,-99.99,1.0,HOBO +U30 +Weather +,2014-08-21 09:20:00,
2014-08-21 03:25:00,62.2,56.6,-100.00,NNW,338,1.8,5.1,81,0.00,,,-99.99,1.0,HOBO +U30 +Weather +,2014-08-21 09:25:00,
2014-08-21 03:30:00,62.1,56.4,-100.00,West,267,0.0,1.8,81,0.00,,,-99.99,1.0,HOBO +U30 +Weather +,2014-08-21 09:30:00,
2014-08-21 03:35:00,62.0,56.2,-100.00,West,267,0.0,1.1,81,0.00,,,-99.99,1.0,HOBO +U30 +Weather +,2014-08-21 09:35:00,
2014-08-21 03:40:00,62.0,56.4,-100.00,West,268,0.0,2.9,82,0.00,,,-99.99,1.0,HOBO +U30 +Weather +,2014-08-21 09:40:00,
2014-08-21 03:45:00,62.1,56.2,-100.00,NNW,348,0.7,3.4,81,0.00,,,-99.99,1.0,HOBO +U30 +Weather +,2014-08-21 09:45:00,
2014-08-21 03:50:00,62.5,56.3,-100.00,North,350,0.0,0.7,80,0.00,,,-99.99,1.0,HOBO +U30 +Weather +,2014-08-21 09:50:00,
2014-08-21 03:55:00,62.5,56.9,-100.00,North,350,0.0,0.0,81,0.00,,,-99.99,1.0,HOBO +U30 +Weather +,2014-08-21 09:55:00,
2014-08-21 04:00:00,62.7,56.7,-100.00,North,350,0.0,0.0,80,0.00,,,-99.99,1.0,HOBO +U30 +Weather +,2014-08-21 10:00:00,
2014-08-21 04:05:00,62.5,56.3,-100.00,North,3,0.0,1.1,80,0.00,,,-99.99,1.0,HOBO +U30 +Weather +,2014-08-21 10:05:00,
2014-08-21 04:10:00,62.2,56.1,-100.00,North,8,0.0,1.8,80,0.00,,,-99.99,1.0,HOBO +U30 +Weather +,2014-08-21 10:10:00,
2014-08-21 04:15:00,62.1,56.5,-100.00,North,8,0.0,0.7,81,0.00,,,-99.99,1.0,HOBO +U30 +Weather +,2014-08-21 10:15:00,
2014-08-21 04:20:00,61.9,56.8,-100.00,North,355,0.0,1.8,83,0.00,,,-99.99,1.0,HOBO +U30 +Weather +,2014-08-21 10:20:00,
2014-08-21 04:25:00,61.6,56.6,-100.00,NNW,334,0.0,1.8,83,0.00,,,-99.99,1.0,HOBO +U30 +Weather +,2014-08-21 10:25:00,
2014-08-21 04:35:00,61.6,56.9,-100.00,NNW,334,0.0,1.1,84,0.00,,,-99.99,1.0,HOBO +U30 +Weather +,2014-08-21 10:35:00,
2014-08-21 04:40:00,61.9,56.7,-100.00,NNW,331,0.0,1.8,83,0.00,,,-99.99,1.0,HOBO +U30 +Weather +,2014-08-21 10:40:00,
2014-08-21 04:45:00,61.8,56.9,-100.00,NW,323,0.7,3.4,83,0.00,,,-99.99,1.0,HOBO +U30 +Weather +,2014-08-21 10:45:00,
2014-08-21 04:50:00,61.8,57.4,-100.00,WNW,299,0.7,4.0,85,0.00,,,-99.99,1.0,HOBO +U30 +Weather +,2014-08-21 10:50:00,
2014-08-21 04:55:00,61.6,57.5,-100.00,WNW,289,1.8,5.1,86,0.00,,,-99.99,1.0,HOBO +U30 +Weather +,2014-08-21 10:55:00,
2014-08-21 05:00:00,61.5,57.3,-100.00,WNW,288,1.1,4.5,86,0.00,,,-99.99,1.0,HOBO +U30 +Weather +,2014-08-21 11:00:00,
2014-08-21 05:05:00,61.6,57.2,-100.00,WNW,288,1.1,2.9,85,0.00,,,-99.99,1.0,HOBO +U30 +Weather +,2014-08-21 11:05:00,
2014-08-21 05:10:00,61.7,57.2,-100.00,WNW,284,0.0,2.2,85,0.00,,,-99.99,1.0,HOBO +U30 +Weather +,2014-08-21 11:10:00,
2014-08-21 05:15:00,61.8,57.0,-100.00,WSW,250,2.2,4.5,84,0.00,,,-99.99,1.0,HOBO +U30 +Weather +,2014-08-21 11:15:00,
2014-08-21 05:20:00,61.8,56.9,-100.00,WSW,253,2.2,4.5,83,0.00,,,-99.99,1.0,HOBO +U30 +Weather +,2014-08-21 11:20:00,
2014-08-21 05:25:00,61.8,56.9,-100.00,West,263,4.0,6.3,83,0.00,,,-99.99,1.0,HOBO +U30 +Weather +,2014-08-21 11:25:00,
2014-08-21 05:30:00,61.8,56.9,-100.00,West,264,4.5,6.3,83,0.00,,,-99.99,1.0,HOBO +U30 +Weather +,2014-08-21 11:30:00,
2014-08-21 05:35:00,61.6,57.4,-100.00,West,272,2.9,5.6,86,0.00,,,-99.99,1.0,HOBO +U30 +Weather +,2014-08-21 11:35:00,
2014-08-21 05:40:00,61.6,57.3,-100.00,West,268,4.0,7.8,85,0.00,,,-99.99,1.0,HOBO +U30 +Weather +,2014-08-21 11:40:00,
2014-08-21 05:45:00,61.6,57.5,-100.00,West,260,4.0,7.8,86,0.00,,,-99.99,1.0,HOBO +U30 +Weather +,2014-08-21 11:45:00,
2014-08-21 05:50:00,61.4,57.3,-100.00,WSW,257,4.0,6.7,86,0.00,,,-99.99,1.0,HOBO +U30 +Weather +,2014-08-21 11:50:00,
2014-08-21 05:55:00,61.4,57.3,-100.00,West,275,2.2,6.7,86,0.00,,,-99.99,1.0,HOBO +U30 +Weather +,2014-08-21 11:55:00,
2014-08-21 06:00:00,61.5,57.2,-100.00,West,274,1.1,4.0,85,0.00,,,-99.99,1.0,HOBO +U30 +Weather +,2014-08-21 12:00:00,
2014-08-21 06:05:00,61.7,57.2,-100.00,WNW,288,2.2,5.1,85,0.00,,,-99.99,1.0,HOBO +U30 +Weather +,2014-08-21 12:05:00,
2014-08-21 06:10:00,61.8,57.2,-100.00,West,275,1.1,3.4,84,0.00,,,-99.99,1.0,HOBO +U30 +Weather +,2014-08-21 12:10:00,
2014-08-21 06:15:00,61.7,57.1,-100.00,West,278,2.2,4.0,84,0.00,,,-99.99,1.0,HOBO +U30 +Weather +,2014-08-21 12:15:00,
2014-08-21 06:20:00,61.7,57.2,-100.00,West,275,1.8,3.4,85,0.00,,,-99.99,1.0,HOBO +U30 +Weather +,2014-08-21 12:20:00,
2014-08-21 06:33:00,61.6,57.2,-100.00,WNW,285,1.1,3.4,85,0.00,,,-99.99,2.0,HOBO +U30 +Weather +,2014-08-21 12:33:00,
2014-08-21 06:35:00,61.7,57.1,-100.00,West,275,0.0,1.1,84,0.00,,,-99.99,3.0,HOBO +U30 +Weather +,2014-08-21 12:35:00,
2014-08-21 06:40:00,61.8,56.8,-100.00,West,275,0.0,0.0,83,0.00,,,-99.99,4.0,HOBO +U30 +Weather +,2014-08-21 12:40:00,
2014-08-21 06:45:00,61.9,56.9,-100.00,West,275,0.0,0.0,83,0.00,,,-99.99,7.0,HOBO +U30 +Weather +,2014-08-21 12:45:00,
2014-08-21 06:50:00,62.0,57.0,-100.00,West,275,0.0,0.0,83,0.00,,,-99.99,13.0,HOBO +U30 +Weather +,2014-08-21 12:50:00,
2014-08-21 06:55:00,62.2,57.0,-100.00,West,275,0.0,0.0,83,0.00,,,-99.99,21.0,HOBO +U30 +Weather +,2014-08-21 12:55:00,
2014-08-21 07:00:00,62.1,56.6,-100.00,NW,310,0.0,2.9,82,0.00,,,-99.99,33.0,HOBO +U30 +Weather +,2014-08-21 13:00:00,
2014-08-21 07:05:00,62.9,57.1,-100.00,NNW,337,0.0,1.1,81,0.00,,,-99.99,102.0,HOBO +U30 +Weather +,2014-08-21 13:05:00,
2014-08-21 07:10:00,63.8,57.3,-100.00,NNW,337,0.0,1.1,79,0.00,,,-99.99,76.0,HOBO +U30 +Weather +,2014-08-21 13:10:00,
2014-08-21 07:15:00,63.6,56.9,-100.00,NNW,344,1.1,4.0,78,0.00,,,-99.99,119.0,HOBO +U30 +Weather +,2014-08-21 13:15:00,
2014-08-21 07:20:00,63.5,56.9,-100.00,North,1,1.8,4.0,79,0.00,,,-99.99,61.0,HOBO +U30 +Weather +,2014-08-21 13:20:00,
2014-08-21 07:32:00,63.2,56.8,-100.00,North,7,1.1,3.4,79,0.00,,,-99.99,63.0,HOBO +U30 +Weather +,2014-08-21 13:32:00,
2014-08-21 07:35:00,63.2,57.0,-100.00,ENE,58,1.8,4.5,80,0.00,,,-99.99,97.0,HOBO +U30 +Weather +,2014-08-21 13:35:00,
2014-08-21 07:40:00,63.1,56.7,-100.00,NNW,343,1.1,4.5,79,0.00,,,-99.99,112.0,HOBO +U30 +Weather +,2014-08-21 13:40:00,
2014-08-21 07:45:00,63.0,56.6,-100.00,West,274,1.1,4.5,79,0.00,,,-99.99,87.0,HOBO +U30 +Weather +,2014-08-21 13:45:00,
2014-08-21 07:50:00,63.0,56.8,-100.00,WNW,288,1.1,4.5,79,0.00,,,-99.99,88.0,HOBO +U30 +Weather +,2014-08-21 13:50:00,
2014-08-21 07:55:00,63.2,56.8,-100.00,WNW,299,0.7,2.9,79,0.00,,,-99.99,89.0,HOBO +U30 +Weather +,2014-08-21 13:55:00,
2014-08-21 08:00:00,63.4,57.0,-100.00,West,279,1.1,3.4,79,0.00,,,-99.99,158.0,HOBO +U30 +Weather +,2014-08-21 14:00:00,
2014-08-21 08:05:00,64.2,57.0,-100.00,WSW,247,3.4,5.6,77,0.00,,,-99.99,194.0,HOBO +U30 +Weather +,2014-08-21 14:05:00,
2014-08-21 08:10:00,63.6,56.8,-100.00,SW,234,4.0,6.3,78,0.00,,,-99.99,109.0,HOBO +U30 +Weather +,2014-08-21 14:10:00,
2014-08-21 08:15:00,63.4,56.8,-100.00,WSW,246,1.8,4.5,78,0.00,,,-99.99,72.0,HOBO +U30 +Weather +,2014-08-21 14:15:00,
2014-08-21 08:20:00,63.6,56.8,-100.00,WSW,237,0.7,3.4,78,0.00,,,-99.99,87.0,HOBO +U30 +Weather +,2014-08-21 14:20:00,
2014-08-21 08:30:00,64.7,57.4,-100.00,West,279,1.8,5.1,77,0.00,,,-99.99,318.0,HOBO +U30 +Weather +,2014-08-21 14:30:00,
2014-08-21 08:35:00,65.4,57.3,-100.00,NNW,338,2.2,5.6,74,0.00,,,-99.99,252.0,HOBO +U30 +Weather +,2014-08-21 14:35:00,
2014-08-21 08:40:00,65.6,57.1,-100.00,North,350,4.0,6.7,74,0.00,,,-99.99,362.0,HOBO +U30 +Weather +,2014-08-21 14:40:00,
2014-08-21 08:45:00,65.6,57.1,-100.00,North,10,5.6,8.5,73,0.00,,,-99.99,392.0,HOBO +U30 +Weather +,2014-08-21 14:45:00,
2014-08-21 08:50:00,65.9,57.1,-100.00,North,7,5.1,8.5,73,0.00,,,-99.99,451.0,HOBO +U30 +Weather +,2014-08-21 14:50:00,
2014-08-21 08:55:00,65.4,57.2,-100.00,North,1,4.5,7.4,74,0.00,,,-99.99,247.0,HOBO +U30 +Weather +,2014-08-21 14:55:00,
2014-08-21 09:00:00,66.6,57.6,-100.00,North,351,3.4,7.4,72,0.00,,,-99.99,596.0,HOBO +U30 +Weather +,2014-08-21 15:00:00,
2014-08-21 09:05:00,66.0,57.0,-100.00,NNW,347,5.1,8.9,72,0.00,,,-99.99,541.0,HOBO +U30 +Weather +,2014-08-21 15:05:00,
2014-08-21 09:10:00,65.1,57.1,-100.00,NNW,341,6.3,9.6,75,0.00,,,-99.99,377.0,HOBO +U30 +Weather +,2014-08-21 15:10:00,
2014-08-21 09:15:00,65.6,57.2,-100.00,North,351,5.6,10.1,74,0.00,,,-99.99,294.0,HOBO +U30 +Weather +,2014-08-21 15:15:00,
2014-08-21 09:29:00,64.1,56.7,-100.00,NNW,329,5.6,9.6,76,0.00,,,-99.99,249.0,HOBO +U30 +Weather +,2014-08-21 15:29:00,
2014-08-21 09:30:00,64.8,56.8,-100.00,North,355,6.3,10.7,75,0.00,,,-99.99,311.0,HOBO +U30 +Weather +,2014-08-21 15:30:00,
2014-08-21 09:35:00,64.5,56.8,-100.00,NNW,330,5.1,8.9,76,0.00,,,-99.99,259.0,HOBO +U30 +Weather +,2014-08-21 15:35:00,
2014-08-21 09:40:00,65.9,57.1,-100.00,NNE,13,4.5,7.4,73,0.00,,,-99.99,386.0,HOBO +U30 +Weather +,2014-08-21 15:40:00,
2014-08-21 09:45:00,65.8,56.9,-100.00,NNE,13,4.5,7.8,72,0.00,,,-99.99,428.0,HOBO +U30 +Weather +,2014-08-21 15:45:00,
2014-08-21 09:50:00,66.5,57.5,-100.00,NNE,29,6.3,9.6,72,0.00,,,-99.99,588.0,HOBO +U30 +Weather +,2014-08-21 15:50:00,
2014-08-21 09:55:00,67.2,57.7,-100.00,NNE,18,6.7,10.7,71,0.00,,,-99.99,593.0,HOBO +U30 +Weather +,2014-08-21 15:55:00,
2014-08-21 10:00:00,66.8,57.5,-100.00,NNE,20,5.6,10.1,72,0.00,,,-99.99,329.0,HOBO +U30 +Weather +,2014-08-21 16:00:00,
2014-08-21 10:05:00,67.1,57.4,-100.00,NE,35,5.6,8.5,71,0.00,,,-99.99,698.0,HOBO +U30 +Weather +,2014-08-21 16:05:00,
2014-08-21 10:10:00,66.7,56.9,-100.00,NNE,18,5.6,8.9,70,0.00,,,-99.99,337.0,HOBO +U30 +Weather +,2014-08-21 16:10:00,
2014-08-21 10:15:00,66.4,56.8,-100.00,NNE,27,5.1,8.5,70,0.00,,,-99.99,366.0,HOBO +U30 +Weather +,2014-08-21 16:15:00,
2014-08-21 10:28:00,65.9,57.4,-100.00,NE,34,5.1,10.1,74,0.00,,,-99.99,263.0,HOBO +U30 +Weather +,2014-08-21 16:28:00,
2014-08-21 10:30:00,65.6,57.4,-100.00,NNE,18,6.3,9.6,74,0.00,,,-99.99,279.0,HOBO +U30 +Weather +,2014-08-21 16:30:00,
2014-08-21 10:35:00,65.9,57.5,-100.00,NE,34,4.5,7.4,74,0.00,,,-99.99,393.0,HOBO +U30 +Weather +,2014-08-21 16:35:00,
2014-08-21 10:40:00,67.6,57.9,-100.00,NE,48,5.1,8.9,71,0.00,,,-99.99,781.0,HOBO +U30 +Weather +,2014-08-21 16:40:00,
2014-08-21 10:45:00,67.5,57.2,-100.00,NE,46,5.6,11.9,69,0.00,,,-99.99,417.0,HOBO +U30 +Weather +,2014-08-21 16:45:00,
2014-08-21 10:50:00,67.3,57.2,-100.00,NE,41,6.3,10.7,70,0.00,,,-99.99,487.0,HOBO +U30 +Weather +,2014-08-21 16:50:00,
2014-08-21 10:55:00,66.4,56.7,-100.00,ENE,60,6.7,10.7,70,0.00,,,-99.99,293.0,HOBO +U30 +Weather +,2014-08-21 16:55:00,
2014-08-21 11:00:00,66.1,56.6,-100.00,ENE,66,7.4,13.0,71,0.00,,,-99.99,273.0,HOBO +U30 +Weather +,2014-08-21 17:00:00,
2014-08-21 11:05:00,66.4,56.4,-100.00,ENE,60,6.7,10.1,69,0.00,,,-99.99,262.0,HOBO +U30 +Weather +,2014-08-21 17:05:00,
2014-08-21 11:10:00,66.9,56.4,-100.00,NE,38,5.6,10.1,69,0.00,,,-99.99,266.0,HOBO +U30 +Weather +,2014-08-21 17:10:00,
2014-08-21 11:15:00,67.2,56.5,-100.00,NE,49,5.1,8.9,68,0.00,,,-99.99,284.0,HOBO +U30 +Weather +,2014-08-21 17:15:00,
2014-08-21 11:27:00,66.7,56.6,-100.00,NE,48,7.4,11.9,69,0.00,,,-99.99,277.0,HOBO +U30 +Weather +,2014-08-21 17:27:00,
2014-08-21 11:30:00,66.7,56.4,-100.00,NE,52,6.3,10.1,69,0.00,,,-99.99,257.0,HOBO +U30 +Weather +,2014-08-21 17:30:00,
2014-08-21 11:35:00,66.7,56.3,-100.00,NE,45,7.8,10.7,69,0.00,,,-99.99,263.0,HOBO +U30 +Weather +,2014-08-21 17:35:00,
2014-08-21 11:40:00,66.4,56.1,-100.00,NE,56,7.4,9.6,69,0.00,,,-99.99,278.0,HOBO +U30 +Weather +,2014-08-21 17:40:00,
2014-08-21 11:45:00,66.9,56.5,-100.00,NE,55,6.3,8.9,69,0.00,,,-99.99,288.0,HOBO +U30 +Weather +,2014-08-21 17:45:00,
2014-08-21 11:50:00,66.7,55.7,-100.00,NE,53,7.8,11.2,67,0.00,,,-99.99,303.0,HOBO +U30 +Weather +,2014-08-21 17:50:00,
2014-08-21 11:55:00,66.7,56.4,-100.00,NE,56,7.4,10.1,69,0.00,,,-99.99,328.0,HOBO +U30 +Weather +,2014-08-21 17:55:00,
2014-08-21 12:00:00,66.4,55.9,-100.00,ENE,59,7.8,11.9,68,0.00,,,-99.99,333.0,HOBO +U30 +Weather +,2014-08-21 18:00:00,
2014-08-21 12:05:00,66.8,56.8,-100.00,NE,51,6.7,10.1,70,0.00,,,-99.99,367.0,HOBO +U30 +Weather +,2014-08-21 18:05:00,
2014-08-21 12:10:00,66.5,56.7,-100.00,NE,48,6.3,9.6,70,0.00,,,-99.99,414.0,HOBO +U30 +Weather +,2014-08-21 18:10:00,
2014-08-21 12:15:00,66.4,56.6,-100.00,NE,52,6.3,9.6,70,0.00,,,-99.99,457.0,HOBO +U30 +Weather +,2014-08-21 18:15:00,
2014-08-21 12:25:00,66.6,56.8,-100.00,NE,53,7.4,10.7,70,0.00,,,-99.99,356.0,HOBO +U30 +Weather +,2014-08-21 18:25:00,
2014-08-21 12:30:00,66.4,56.6,-100.00,NE,53,6.7,8.9,70,0.00,,,-99.99,242.0,HOBO +U30 +Weather +,2014-08-21 18:30:00,
2014-08-21 12:35:00,66.5,56.5,-100.00,NE,34,6.3,7.8,70,0.00,,,-99.99,242.0,HOBO +U30 +Weather +,2014-08-21 18:35:00,
2014-08-21 12:40:00,66.9,56.8,-100.00,NE,35,6.3,8.5,69,0.00,,,-99.99,261.0,HOBO +U30 +Weather +,2014-08-21 18:40:00,
2014-08-21 12:45:00,67.1,56.5,-100.00,NE,38,4.5,7.8,68,0.00,,,-99.99,242.0,HOBO +U30 +Weather +,2014-08-21 18:45:00,
2014-08-21 12:50:00,66.6,56.5,-100.00,NE,55,5.6,8.5,69,0.00,,,-99.99,224.0,HOBO +U30 +Weather +,2014-08-21 18:50:00,
2014-08-21 12:55:00,66.7,56.9,-100.00,NNE,29,5.1,9.6,70,0.00,,,-99.99,217.0,HOBO +U30 +Weather +,2014-08-21 18:55:00,
2014-08-21 13:00:00,66.5,56.2,-100.00,NE,53,5.1,8.5,69,0.00,,,-99.99,227.0,HOBO +U30 +Weather +,2014-08-21 19:00:00,
2014-08-21 13:05:00,66.9,56.3,-100.00,NE,53,6.3,9.6,68,0.00,,,-99.99,244.0,HOBO +U30 +Weather +,2014-08-21 19:05:00,
2014-08-21 13:10:00,66.9,56.1,-100.00,NE,46,5.6,8.5,68,0.00,,,-99.99,236.0,HOBO +U30 +Weather +,2014-08-21 19:10:00,
2014-08-21 13:24:00,67.0,56.2,-100.00,NE,48,5.1,7.8,68,0.00,,,-99.99,234.0,HOBO +U30 +Weather +,2014-08-21 19:24:00,
2014-08-21 13:25:00,67.1,56.6,-100.00,NE,39,6.3,10.1,69,0.00,,,-99.99,213.0,HOBO +U30 +Weather +,2014-08-21 19:25:00,
2014-08-21 13:30:00,66.8,56.8,-100.00,NNE,22,5.6,8.5,70,0.00,,,-99.99,152.0,HOBO +U30 +Weather +,2014-08-21 19:30:00,
2014-08-21 13:35:00,66.5,56.1,-100.00,NE,53,5.6,8.5,69,0.00,,,-99.99,141.0,HOBO +U30 +Weather +,2014-08-21 19:35:00,
2014-08-21 13:40:00,66.7,56.5,-100.00,NE,56,5.1,7.4,69,0.00,,,-99.99,139.0,HOBO +U30 +Weather +,2014-08-21 19:40:00,
2014-08-21 13:45:00,67.1,56.3,-100.00,NE,39,4.0,6.7,68,0.00,,,-99.99,163.0,HOBO +U30 +Weather +,2014-08-21 19:45:00,
2014-08-21 13:50:00,66.8,57.1,-100.00,NE,44,4.5,6.7,70,0.00,,,-99.99,158.0,HOBO +U30 +Weather +,2014-08-21 19:50:00,
2014-08-21 13:55:00,66.7,56.4,-100.00,NNE,13,5.1,7.8,69,0.00,,,-99.99,146.0,HOBO +U30 +Weather +,2014-08-21 19:55:00,
2014-08-21 14:00:00,66.7,57.0,-100.00,NNE,25,2.2,5.1,71,0.00,,,-99.99,128.0,HOBO +U30 +Weather +,2014-08-21 20:00:00,
2014-08-21 14:05:00,66.6,56.7,-100.00,North,8,5.6,8.5,70,0.00,,,-99.99,133.0,HOBO +U30 +Weather +,2014-08-21 20:05:00,
2014-08-21 14:10:00,66.1,57.7,-100.00,North,355,5.6,8.5,74,0.00,,,-99.99,126.0,HOBO +U30 +Weather +,2014-08-21 20:10:00,
2014-08-21 14:22:00,65.2,58.5,-100.00,NNW,330,4.0,7.8,78,0.00,,,-99.99,91.0,HOBO +U30 +Weather +,2014-08-21 20:22:00,